This is the latest recevied weather packets stored in our database for station/object K8GLX. If no packets are shown the sender has not sent any weather packets the latest 10 day(s).
| Time | Temp. | Humidity | Pressure | Rain* | Wind** | Luminosity | Snow |
|---|---|---|---|---|---|---|---|
| 1777465032 | 11.67° C | 92% | 1010.8 hPa | 0.51 mm | - | 90 W/m² | - |
| 1777464739 | 11.67° C | 91% | 1010.6 hPa | 0.51 mm | - | 57 W/m² | - |
| 1777464433 | 12.22° C | 91% | 1010.8 hPa | 0.25 mm | - | 42 W/m² | - |
| 1777464138 | 12.22° C | 91% | 1010.7 hPa | 0.25 mm | - | 32 W/m² | - |
| 1777463832 | 12.22° C | 90% | 1011.1 hPa | 0.25 mm | - | 39 W/m² | - |
| 1777463539 | 12.22° C | 89% | 1011.1 hPa | 0.25 mm | - | 45 W/m² | - |
| 1777463233 | 12.22° C | 89% | 1011.4 hPa | 0.25 mm | - | 19 W/m² | - |
| 1777462938 | 12.22° C | 89% | 1011.3 hPa | 0 mm | - | 8 W/m² | - |
| 1777462632 | 12.22° C | 89% | 1011.5 hPa | 0 mm | - | 6 W/m² | - |
| 1777462338 | 12.22° C | 89% | 1011.3 hPa | 0 mm | - | 8 W/m² | - |
| 1777462033 | 12.22° C | 89% | 1011.5 hPa | 0 mm | - | 7 W/m² | - |
| 1777461739 | 11.67° C | 90% | 1011.6 hPa | 0 mm | - | 19 W/m² | - |
| 1777461433 | 11.67° C | 90% | 1011.7 hPa | 0 mm | - | 16 W/m² | - |
| 1777461139 | 11.67° C | 91% | 1011.8 hPa | 0 mm | - | 18 W/m² | - |
| 1777460833 | 11.67° C | 91% | 1011.6 hPa | 0 mm | - | 16 W/m² | - |
| 1777460538 | 11.11° C | 92% | 1011.5 hPa | 0 mm | - | 14 W/m² | - |
| 1777460232 | 11.11° C | 92% | 1011.8 hPa | 0 mm | - | 8 W/m² | - |
| 1777460065 | 11.11° C | 92% | 1011.5 hPa | 0 mm | - | 8 W/m² | - |
| 1777459633 | 11.11° C | 93% | 1011.5 hPa | 0 mm | - | 7 W/m² | - |
| 1777459465 | 11.11° C | 93% | 1011.5 hPa | 0 mm | - | 4 W/m² | - |
| 1777459032 | 10.56° C | 93% | 1011.4 hPa | 0 mm | - | 4 W/m² | - |
| 1777458738 | 10.56° C | 93% | 1011.6 hPa | 0 mm | - | 2 W/m² | - |
| 1777458433 | 10.56° C | 93% | 1011.5 hPa | 0 mm | - | 2 W/m² | - |
| 1777458141 | 10.56° C | 93% | 1011.3 hPa | 0 mm | - | 0 W/m² | - |
| 1777457833 | 10.56° C | 93% | 1011.2 hPa | 0 mm | - | 0 W/m² | - |
* Rain latest hour (hover to see other rain measurements)
** Current wind speed in m/s (hover to see current wind gust speed)